Regional Weather Roundup
Issued by NWS

Home | Current Version | Previous Version | Text Only | Print | Product List | Glossary On
Versions: 1 2 3 4 5 6 7 8 9 10 11 12 13 14 15 16 17 18 19 20 21 22 23 24 25 26 27
000
ASCA42 TJSJ 280310
RWRPR
PUERTO RICO/U.S. VIRGIN ISLANDS HOURLY WEATHER ROUNDUP
NATIONAL WEATHER SERVICE SAN JUAN PR
1100 PM AST MON MAR 27 2017

PRZ001>002-007>008-010-280400-
PUERTO RICO

CITY           SKY/WX    TMP DP  RH WIND       PRES   REMARKS
SAN JUAN LMM   PTCLDY    79  75  89 CALM      29.95R
PONCE          PTCLDY    75  73  94 CALM      29.99
AGUADILLA      CLEAR     75  70  83 CALM      29.96R
CEIBA          MOCLDY    79  73  83 SW3       29.96F
$$

VIZ001>002-280400-
U.S. VIRGIN ISLANDS

CITY           SKY/WX    TMP DP  RH WIND       PRES   REMARKS
CHARLOTTE AMA  CLEAR     79  73  83 S7        29.94S
CHRISTIANSTED  CLEAR     73  72  94 CALM      29.95S
$$

HOURLY WEATHER ROUNDUP FOR THE NEWS MEDIA

CITY           SKY/WX    TMP DP  RH WIND       PRES   REMARKS
ORLANDO        CLEAR     67  60  78 SE3       30.05S
NEW YORK       CLOUDY    47  46  97 E3        30.02S
NEWARK         CLOUDY    49  46  90 NE5       30.00F
CHICAGO        CLOUDY    43  36  76 NE12      29.97R
HARTFORD       CLOUDY    43  41  93 VRB5      30.01S
BOSTON         CLOUDY    38  37  97 N7        30.04S WCI  33
DALLAS         PTCLDY    66  54  65 N7        29.88R
PHILADELPHIA   CLOUDY    54  50  86 E6        29.97F FOG
LOS ANGELES    PTCLDY    66  33  29 NW10G18   29.94R
WASHINGTON DC  CLOUDY    61  58  90 CALM      29.91F



USA.gov is the U.S. government's official web portal to all federal, state and local government web resources and services.